PROFILE

 METAR AND TAF INFORMATION
ADDS - METARS form results

(1236 UTC 26 September 2021)
http://aviationweather.gov/metar/data/
 
LIPZ 261220Z 10004KT 9999 FEW015 23/18 Q1019 BECMG RA
LIPZ 261150Z 12003KT 080V160 9999 SCT015 23/18 Q1020 NOSIG
TAF LIPZ 261100Z 2612/2718 12012KT 8000 SCT020 TEMPO 2615/2621 4000 TSRA BECMG 2616/2618 VRB04KT TEMPO 2700/2706 0700 FG BKN002 BECMG 2710/2712 13012KT 

 AIRPORT MAP

 RUNWAY INFORMATION
Runway 04L Runway length 9121 ft Runway width 148 ft
Runway elevation 7 ft Runway displaced threshold 308 ft Runway heading 42
Runway 22R Runway length 9121 ft Runway width 148 ft
Runway elevation 7 ft Runway displaced threshold 0 ft Runway heading 222
Runway 04R Runway length 10827 ft Runway width 148 ft
Runway elevation 7 ft Runway displaced threshold 0 ft Runway heading 42
Runway 22L Runway length 10827 ft Runway width 148 ft
Runway elevation 7 ft Runway displaced threshold 0 ft Runway heading 222

 AIRPORT FREQUENCIES
Type APP Name APP Frequency 118.9 MHZ
Type ATIS Name ATIS Frequency 122.225 MHZ
Type GND Name GND Frequency 121.7 MHZ
Type TWR Name TWR Frequency 120.2 MHZ

 AIRPORT NEAR NAVIGATION AIDS
Type VOR-DME Name Tessera Frequency 115300 KHZ
Type NDB Name Venezia Frequency 379 KHZ